Regional Weather Roundup
Issued by NWS

Home | Current Version | Previous Version | Graphics & Text | Print | Product List | Glossary On
Versions: 1 2 3 4 5 6 7 8 9 10 11 12 13 14 15 16 17 18 19 20 21 22 23 24 25 26 27 28 29 30 31 32 33 34 35 36 37 38 39 40 41 42 43 44 45 46 47 48 49 50
000
ASUS45 KPSR 280800
RWRAZ

PRELIMINARY ARIZONA REGIONAL HOURLY WEATHER ROUNDUP
NATIONAL WEATHER SERVICE PHOENIX AZ
100 AM MST SUN DEC 28 2014

NOTE: FAIR INDICATES FEW OR NO CLOUDS BELOW 12,000 FEET WITH NO
SIGNIFICANT WEATHER AND/OR OBSTRUCTIONS TO VISIBILITY.

AZZ001>003-036-280900-
NORTHWEST ARIZONA

CITY           SKY/WX    TMP DP  RH WIND       PRES   REMARKS
BULLHEAD CITY  CLEAR     43  10  26 NE6       30.36F
KINGMAN        CLEAR     23  12  62 SE8       30.30F WCI  14
$$

AZZ004>008-015-016-018-280900-
NORTH CENTRAL ARIZONA

CITY           SKY/WX    TMP DP  RH WIND       PRES   REMARKS
GRAND CANYON   PTCLDY     8   4  83 CALM      30.24F
PRESCOTT       CLEAR     20  11  68 S7        30.25F WCI  11
FLAGSTAFF      NOT AVBL
PAYSON         CLEAR     28   9  43 E5        30.27F WCI  23
PAGE           CLEAR     28   8  43 SW5       30.26F WCI  23
$$

AZZ009>014-017-280900-
NORTHEAST ARIZONA

CITY           SKY/WX    TMP DP  RH WIND       PRES   REMARKS
WINSLOW        NOT AVBL
SAINT JOHNS    CLEAR     19  10  68 S5        30.25F WCI  12
WINDOW ROCK    CLEAR      4  -2  76 CALM      30.22F
$$

AZZ023-280900-
GREATER PHOENIX AREA

CITY           SKY/WX    TMP DP  RH WIND       PRES   REMARKS
PHOENIX        CLEAR     44  20  38 W3        30.27F
LUKE AFB       CLEAR     42  19  40 N6        30.27F
DEER VALLEY    CLEAR     40  19  43 NE8       30.26F WCI  34
SCOTTSDALE     CLEAR     39  24  55 CALM      30.28F
$$

AZZ027-028-280900-
SOUTHWEST MARICOPA COUNTY AND PINAL COUNTY

CITY           SKY/WX    TMP DP  RH WIND       PRES   REMARKS
CASA GRANDE    CLEAR     34  19  55 CALM      30.28F
$$

AZZ503-504-507>509-280900-
SOUTHEAST ARIZONA

CITY           SKY/WX    TMP DP  RH WIND       PRES   REMARKS
TUCSON         CLEAR     32  28  85 E6        30.29F WCI  26
DAVIS-MONTHAN  CLEAR     32  26  80 S7        30.27S WCI  25
NOGALES        CLEAR     30  15  53 SW3       30.24F
SIERRA VISTA   CLEAR     26  14  60 S3        30.25S
SAFFORD        CLEAR     27  20  75 SE5       30.26F WCI  22
$$

AZZ020-021-025-026-031-280900-
SOUTHWEST ARIZONA

CITY           SKY/WX    TMP DP  RH WIND       PRES   REMARKS
YUMA           CLEAR    N/A N/A N/A CALM      30.31F
$$

CAZ031-033-041-043-047-048-061-280900-
SOUTHERN CALIFORNIA

CITY           SKY/WX    TMP DP  RH WIND       PRES   REMARKS
DOWNTOWN L.A.  PTCLDY    47  26  44 CALM      30.30F
L.A. AIRPORT   PTCLDY    49  24  37 CALM      30.30F
SAN DIEGO      PTCLDY    51  21  30 CALM      30.31F
BURBANK        CLEAR     44  24  45 NW3       30.30S
ONTARIO        PTCLDY    42  24  49 CALM      30.29F
RIVERSIDE      CLEAR     41  21  44 CALM      30.30F
PALM SPRINGS   CLEAR     42  19  39 NW6       30.35F
EL CENTRO NAS  CLEAR     39  12  33 W10       30.33F WCI  32
IMPERIAL       CLEAR     37  16  42 W6        30.33F WCI  32
BLYTHE         CLEAR     40  15  36 CALM      30.33F
$$

NVZ020-UTZ003-280900-
SOUTHERN NEVADA-UTAH

CITY           SKY/WX    TMP DP  RH WIND       PRES   REMARKS
LAS VEGAS      CLEAR     36   9  32 SW9       30.29F WCI  29
SALT LAKE CITY CLOUDY    25  15  66 SE8       30.20F WCI  16
$$

NMZ009-TXZ055-280900-
NEW MEXICO-WEST TEXAS

CITY           SKY/WX    TMP DP  RH WIND       PRES   REMARKS
ALBUQUERQUE    PTCLDY    23   9  55 CALM      30.24F
EL PASO        CLEAR     32  30  92 S3        30.26F
$$


........................KEY........................
SKY/WX - SKY CONDITION/WEATHER
TMP    - TEMPERATURE IN FAHRENHEIT
DP     - DEW POINT IN FAHRENHEIT
RH     - RELATIVE HUMIDITY IN PERCENT
WIND   - DIRECTION AND SPEED IN MILES PER HOUR (MPH)
VRB    - VARIABLE WIND DIRECTION
PRES   - MEAN SEA LEVEL PRESSURE IN INCHES OF MERCURY
         F - FALLING PRESSURE   R - RISING PRESSURE
         S - STEADY PRESSURE
VSB    - VISIBILITY IN MILES
HX     - HEAT INDEX IN FAHRENHEIT
WCI    - WIND CHILL INDEX IN FAHRENHEIT
TC     - TEMPERATURE IN CELSIUS WHICH IS ALSO KNOWN AS
         TEMPERATURE IN CENTIGRADE
AFB    - AIR FORCE BASE
         LUKE AFB IS LUKE AIR FORCE BASE
         DAVIS-MONTHAN IS DAVIS-MONTHAN AIR FORCE BASE
NAS    - NAVAL AIR STATION
         EL CENTRO NAS IS EL CENTRO NAVAL AIR STATION
N/A    - NOT AVAILABLE



USA.gov is the U.S. government's official web portal to all federal, state and local government web resources and services.